Location: Aranbee
(34.0885°N, 118.2342°W)
Time: 23:54:49
(UTC+00:00)

SR - All Passes

Search period start: 05 December 2020 00:00
Search period end: 15 December 2020 00:00
Orbit: 579 x 877 km, 66.7° (Epoch: 05 December)

Date Brightness Start Highest point End Pass type
(mag) Time Alt. Az. Time Alt. Az. Time Alt. Az.
05 Dec - 01:23:06 10° WSW 01:26:26 21° NW 01:29:56 10° N visible
05 Dec - 08:24:58 10° NNE 08:27:57 15° NE 08:31:02 10° E night (unlit)
05 Dec - 10:05:01 10° NNW 10:10:34 81° WSW 10:16:25 10° SSE night (unlit)
05 Dec - 22:53:25 10° SE 22:55:04 12° ESE 22:56:43 10° E daylight
06 Dec - 00:32:21 10° SW 00:36:28 47° WNW 00:40:53 10° NNE daylight
06 Dec - 09:15:25 10° NNW 09:20:47 50° ENE 09:26:26 10° SE night (unlit)
06 Dec - 10:58:29 10° WNW 11:02:33 21° WSW 11:06:43 10° SSW night (unlit)
06 Dec - 23:42:31 10° SSW 23:46:45 70° ESE 23:51:15 10° NNE daylight
07 Dec - 01:28:05 10° WNW 01:29:22 11° NW 01:30:40 10° NNW visible
07 Dec - 08:26:17 10° N 08:30:52 26° NE 08:35:38 10° ESE night (unlit)
07 Dec - 10:07:47 10° NW 10:13:02 42° WSW 10:18:30 10° S night (unlit)
07 Dec - 22:53:37 10° SSE 22:57:14 27° ESE 23:01:00 10° NE daylight
08 Dec - 00:35:44 10° WSW 00:39:11 23° NW 00:42:51 10° N daylight
08 Dec - 07:37:57 10° NNE 07:40:43 14° NE 07:43:33 10° E night (unlit)
08 Dec - 09:17:48 10° NNW 09:23:23 87° WSW 09:29:15 10° SSE night (unlit)
08 Dec - 22:06:45 10° ESE 22:07:53 11° ESE 22:09:01 10° E daylight
08 Dec - 23:45:04 10° SW 23:49:15 51° WNW 23:53:43 10° NNE daylight
09 Dec - 08:28:15 10° NNW 08:33:36 47° ENE 08:39:12 10° SE night (unlit)
09 Dec - 10:11:08 10° WNW 10:15:24 22° WSW 10:19:46 10° SSW night (unlit)
09 Dec - 22:55:19 10° SSW 22:59:32 63° ESE 23:04:02 10° NNE daylight
10 Dec - 00:40:21 10° WNW 00:42:06 12° NW 00:43:53 10° NNW daylight
10 Dec - 07:39:09 10° N 07:43:39 25° NE 07:48:18 10° ESE night (unlit)
10 Dec - 09:20:32 10° NW 09:25:52 45° WSW 09:31:25 10° S night (unlit)
10 Dec - 22:06:32 10° SSE 22:10:02 25° ESE 22:13:43 10° NE daylight
10 Dec - 23:48:21 10° WSW 23:51:56 25° NW 23:55:45 10° N daylight
11 Dec - 06:50:57 10° NNE 06:53:29 13° NE 06:56:03 10° ENE night (unlit)
11 Dec - 08:30:35 10° NNW 08:36:12 88° ENE 08:42:05 10° SSE night (unlit)
11 Dec - 10:16:28 10° W 10:17:37 11° WSW 10:18:47 10° WSW night (unlit)
11 Dec - 22:57:47 10° SW 23:02:01 56° WNW 23:06:33 10° NNE daylight
12 Dec - 07:41:04 10° NNW 07:46:24 44° ENE 07:51:57 10° SE night (unlit)
12 Dec - 09:23:48 10° NW 09:28:14 24° WSW 09:32:47 10° SSW night (unlit)
12 Dec - 22:08:07 10° SSW 22:12:19 58° ESE 22:16:49 10° NE daylight
12 Dec - 23:52:43 10° WNW 23:54:50 13° NW 23:56:59 10° NNW daylight
13 Dec - 06:52:02 10° N 06:56:25 23° NE 07:00:58 10° ESE night (unlit)
13 Dec - 08:33:17 10° NW 08:38:41 49° WSW 08:44:19 10° S night (unlit)
13 Dec - 21:19:26 10° SSE 21:22:51 23° ESE 21:26:24 10° NE daylight
13 Dec - 23:00:58 10° WSW 23:04:41 27° NW 23:08:38 10° N daylight
14 Dec - 06:04:00 10° NNE 06:06:14 12° NE 06:08:30 10° ENE night (unlit)
14 Dec - 07:43:23 10° NNW 07:49:01 83° ENE 07:54:54 10° SSE night (unlit)
14 Dec - 09:28:33 10° W 09:30:28 12° WSW 09:32:23 10° WSW night (unlit)
14 Dec - 22:10:31 10° SW 22:14:47 62° WNW 22:19:22 10° NNE daylight
